Regional Weather Roundup
Issued by NWS

Home | Current Version | Previous Version | Text Only | Print | Product List | Glossary Off
Versions: 1 2 3 4 5 6 7 8 9 10 11 12 13 14 15 16 17 18 19 20 21 22 23 24 25 26 27 28 29 30 31 32 33 34 35 36 37 38 39 40 41 42 43 44 45 46 47 48 49 50

000
ASUS43 KTOP 172059
RWRKS

WEATHER ROUNDUP FOR KANSAS
NATIONAL WEATHER SERVICE GOODLAND KS
400 PM CDT FRI APR 17 2015

NOTE:  "FAIR" INDICATES FEW OR NO CLOUDS BELOW 12,000 FEET WITH NO
SIGNIFICANT WEATHER AND/OR OBSTRUCTIONS TO VISIBILITY.

KSZ001>006-013>018-027>032-041>047-172200-
NORTHWEST KANSAS

CITY           SKY/WX    TMP DP  RH WIND       PRES   REMARKS
GOODLAND       MOSUNNY   65  45  48 SE18G24   29.95F
HAYS           MOSUNNY   72  50  46 SE12G21   29.95F
HILL CITY      MOSUNNY   69  50  50 SE10      29.95F
RUSSELL        SUNNY     73  53  49 SE10      29.94F
$$

KSZ061>065-074>080-084>089-172200-
SOUTHWEST KANSAS

CITY           SKY/WX    TMP DP  RH WIND       PRES   REMARKS
DODGE CITY     PTSUNNY   71  52  50 SE16      29.92F
ELKHART          N/A    N/A N/A N/A MISG        N/A
GARDEN CITY    MOSUNNY   71  52  50 E16G22    29.90F
GREAT BEND     PTSUNNY   70  54  56 SE8       29.94F
LIBERAL        PTSUNNY   72  52  49 S12G17    29.93F
$$

KSZ066>073-081>083-090>101-172200-
SOUTHEAST KANSAS

CITY           SKY/WX    TMP DP  RH WIND       PRES   REMARKS
CHANUTE        MOSUNNY   75  60  59 SE14      29.94F
COFFEYVILLE    MOSUNNY   75  60  59 SE12      29.93F
HUTCHINSON     MOSUNNY   75  55  49 SE6       29.94F
MEDICINE LODGE   N/A     73  55  53 S12G18    29.91F
NEWTON         PTSUNNY   70  55  60 SE5       29.97F
PARSONS        MOSUNNY   75  62  64 SE9       29.95F
WICHITA INTL   PTSUNNY   73  56  54 SW3       29.94F
WICHITA JABRA  PTSUNNY   74  57  55 VRB6      29.94F
WINFIELD       CLOUDY    74  58  57 MISG      29.95F
$$

KSZ007>012-019>026-033>040-048>060-102>105-172200-
NORTHEAST KANSAS

CITY           SKY/WX    TMP DP  RH WIND       PRES   REMARKS
CONCORDIA      PTSUNNY   71  55  56 E10       29.96F
EMPORIA        MOSUNNY   72  59  63 SE12      29.95F
LAWRENCE       CLOUDY    72  60  66 S6        29.97F
OLATHE IND     CLOUDY    74  58  57 SE9       29.97F
OLATHE EXE     PTSUNNY   74  58  57 SE9       29.96F
SALINA         CLOUDY    72  56  57 CALM      29.95F
TOPEKA BILLARD CLOUDY    72  59  63 SE6       29.97F
TOPEKA FORBES  CLOUDY    74  59  59 S5        29.96F
$$


USA.gov is the U.S. government's official web portal to all federal, state and local government web resources and services.